Location: Unspecified
(34.1750°S, 150.8048°E)
Time: 09:34:15
(UTC+10:00)

Tiangong - Pass Details

Date: 26 April 2024
Orbit: 372 x 376 km, 41.5° (Epoch: 18 May)

Event Time Altitude Azimuth Distance (km) Brightness Sun altitude
Exits shadow 04:11:49 12° 121° (ESE) 1,273 1.2 -28.7°
Drops below altitude 10° 04:12:09 10° 120° (ESE) 1,405 1.4 -28.6°
Sets 04:14:15 0° 117° (ESE) 2,264 2.7 -28.2°
